Time,TemperatureF,DewpointF,PressureIn,WindDirection,WindDirectionDegrees,WindSpeedMPH,WindSpeedGustMPH,Humidity,HourlyPrecipIn,Conditions,Clouds,dailyrainin,SoftwareType,DateUTC
2013-05-30 00:03:00,79.0,64.0,30.10,North,0,0.0,-999.0,61,-99.99,,,-99.99,,2013-05-30 04:03:00,
2013-05-30 00:13:00,79.0,64.0,30.10,WSW,240,5.0,-999.0,61,-99.99,,,-99.99,,2013-05-30 04:13:00,
2013-05-30 00:23:00,79.0,64.0,30.10,WSW,240,5.0,-999.0,61,-99.99,,,-99.99,,2013-05-30 04:23:00,
2013-05-30 00:33:00,79.0,64.0,30.10,West,260,5.0,-999.0,61,-99.99,,,-99.99,,2013-05-30 04:33:00,
2013-05-30 00:42:00,79.0,64.0,30.10,West,260,5.0,-999.0,61,-99.99,,,-99.99,,2013-05-30 04:42:00,
2013-05-30 00:53:00,79.0,64.0,30.10,North,0,0.0,-999.0,61,-99.99,,,-99.99,,2013-05-30 04:53:00,
2013-05-30 01:02:00,79.0,64.0,30.10,North,0,0.0,-999.0,61,-99.99,,,-99.99,,2013-05-30 05:02:00,
2013-05-30 01:12:00,79.0,64.0,30.10,North,0,0.0,-999.0,61,-99.99,,,-99.99,,2013-05-30 05:12:00,
2013-05-30 01:22:00,79.0,64.0,30.10,North,0,0.0,-999.0,61,-99.99,,,-99.99,,2013-05-30 05:22:00,
2013-05-30 01:32:00,77.0,63.0,30.11,WSW,250,5.0,-999.0,61,-99.99,,,-99.99,,2013-05-30 05:32:00,
2013-05-30 01:43:00,77.0,63.0,30.11,WSW,250,5.0,-999.0,61,-99.99,,,-99.99,,2013-05-30 05:43:00,
2013-05-30 01:52:00,75.0,63.0,30.12,West,280,5.0,-999.0,64,-99.99,,,-99.99,,2013-05-30 05:52:00,
2013-05-30 02:01:00,75.0,63.0,30.12,West,280,5.0,-999.0,64,-99.99,,,-99.99,,2013-05-30 06:01:00,
2013-05-30 02:12:00,75.0,63.0,30.12,North,0,0.0,-999.0,64,-99.99,,,-99.99,,2013-05-30 06:12:00,
2013-05-30 02:22:00,75.0,63.0,30.12,North,0,0.0,-999.0,64,-99.99,,,-99.99,,2013-05-30 06:22:00,
2013-05-30 02:32:00,75.0,63.0,30.12,West,260,5.0,-999.0,64,-99.99,,,-99.99,,2013-05-30 06:32:00,
2013-05-30 02:42:00,75.0,63.0,30.12,West,260,5.0,-999.0,64,-99.99,,,-99.99,,2013-05-30 06:42:00,
2013-05-30 02:52:00,75.0,63.0,30.12,West,260,6.0,-999.0,64,-99.99,,,-99.99,,2013-05-30 06:52:00,
2013-05-30 03:01:00,75.0,63.0,30.12,West,260,6.0,-999.0,64,-99.99,,,-99.99,,2013-05-30 07:01:00,
2013-05-30 03:12:00,75.0,63.0,30.12,North,0,0.0,-999.0,64,-99.99,,,-99.99,,2013-05-30 07:12:00,
2013-05-30 03:22:00,75.0,63.0,30.12,North,0,0.0,-999.0,64,-99.99,,,-99.99,,2013-05-30 07:22:00,
2013-05-30 03:32:00,75.0,63.0,30.12,North,-999,-999.0,-999.0,64,-99.99,,,-99.99,,2013-05-30 07:32:00,
2013-05-30 03:42:00,75.0,63.0,30.12,North,-999,-999.0,-999.0,64,-99.99,,,-99.99,,2013-05-30 07:42:00,
2013-05-30 03:52:00,73.0,63.0,30.12,North,0,0.0,-999.0,68,-99.99,,,-99.99,,2013-05-30 07:52:00,
2013-05-30 04:02:00,73.0,63.0,30.12,North,0,0.0,-999.0,68,-99.99,,,-99.99,,2013-05-30 08:02:00,
2013-05-30 04:11:00,73.0,63.0,30.12,West,270,5.0,-999.0,68,-99.99,,,-99.99,,2013-05-30 08:11:00,
2013-05-30 04:22:00,73.0,63.0,30.12,West,270,5.0,-999.0,68,-99.99,,,-99.99,,2013-05-30 08:22:00,
2013-05-30 04:32:00,73.0,63.0,30.12,West,270,6.0,-999.0,68,-99.99,,,-99.99,,2013-05-30 08:32:00,
2013-05-30 04:42:00,73.0,63.0,30.12,West,270,6.0,-999.0,68,-99.99,,,-99.99,,2013-05-30 08:42:00,
2013-05-30 04:52:00,73.0,63.0,30.13,West,280,5.0,-999.0,68,-99.99,,,-99.99,,2013-05-30 08:52:00,
2013-05-30 05:01:00,73.0,63.0,30.13,West,280,5.0,-999.0,68,-99.99,,,-99.99,,2013-05-30 09:01:00,
2013-05-30 05:11:00,73.0,63.0,30.13,West,270,5.0,-999.0,68,-99.99,,,-99.99,,2013-05-30 09:11:00,
2013-05-30 05:22:00,73.0,63.0,30.13,West,270,5.0,-999.0,68,-99.99,,,-99.99,,2013-05-30 09:22:00,
2013-05-30 05:33:00,73.0,63.0,30.14,North,0,0.0,-999.0,68,-99.99,,,-99.99,,2013-05-30 09:33:00,
2013-05-30 05:43:00,73.0,63.0,30.14,North,0,0.0,-999.0,68,-99.99,,,-99.99,,2013-05-30 09:43:00,
2013-05-30 05:53:00,72.0,61.0,30.15,North,-999,-999.0,-999.0,68,-99.99,,,-99.99,,2013-05-30 09:53:00,
2013-05-30 06:03:00,72.0,61.0,30.15,North,-999,-999.0,-999.0,68,-99.99,,,-99.99,,2013-05-30 10:03:00,
2013-05-30 06:13:00,72.0,63.0,30.15,North,0,0.0,-999.0,73,-99.99,,,-99.99,,2013-05-30 10:13:00,
2013-05-30 06:23:00,72.0,63.0,30.15,North,0,0.0,-999.0,73,-99.99,,,-99.99,,2013-05-30 10:23:00,
2013-05-30 06:33:00,72.0,63.0,30.16,North,-999,-999.0,-999.0,73,-99.99,,,-99.99,,2013-05-30 10:33:00,
2013-05-30 06:42:00,72.0,63.0,30.16,North,-999,-999.0,-999.0,73,-99.99,,,-99.99,,2013-05-30 10:42:00,
2013-05-30 06:52:00,72.0,63.0,30.16,North,0,0.0,-999.0,73,-99.99,,,-99.99,,2013-05-30 10:52:00,
2013-05-30 07:03:00,72.0,63.0,30.16,North,0,0.0,-999.0,73,-99.99,,,-99.99,,2013-05-30 11:03:00,
2013-05-30 07:12:00,72.0,63.0,30.16,North,0,0.0,-999.0,73,-99.99,,,-99.99,,2013-05-30 11:12:00,
2013-05-30 07:22:00,72.0,63.0,30.16,North,0,0.0,-999.0,73,-99.99,,,-99.99,,2013-05-30 11:22:00,
2013-05-30 07:32:00,72.0,63.0,30.17,North,0,0.0,-999.0,73,-99.99,,,-99.99,,2013-05-30 11:32:00,
2013-05-30 07:42:00,72.0,63.0,30.17,North,0,0.0,-999.0,73,-99.99,,,-99.99,,2013-05-30 11:42:00,
2013-05-30 07:52:00,73.0,63.0,30.17,North,0,0.0,-999.0,68,-99.99,,,-99.99,,2013-05-30 11:52:00,
2013-05-30 08:01:00,73.0,63.0,30.17,North,0,0.0,-999.0,68,-99.99,,,-99.99,,2013-05-30 12:01:00,
2013-05-30 08:11:00,73.0,64.0,30.17,North,0,0.0,-999.0,73,-99.99,,,-99.99,,2013-05-30 12:11:00,
2013-05-30 08:22:00,73.0,64.0,30.17,North,0,0.0,-999.0,73,-99.99,,,-99.99,,2013-05-30 12:22:00,
2013-05-30 08:32:00,73.0,64.0,30.18,North,0,0.0,-999.0,73,-99.99,,,-99.99,,2013-05-30 12:32:00,
2013-05-30 08:42:00,73.0,64.0,30.18,North,0,0.0,-999.0,73,-99.99,,,-99.99,,2013-05-30 12:42:00,
2013-05-30 08:52:00,75.0,64.0,30.17,North,0,0.0,-999.0,69,-99.99,,,-99.99,,2013-05-30 12:52:00,
2013-05-30 09:01:00,75.0,64.0,30.17,North,0,0.0,-999.0,69,-99.99,,,-99.99,,2013-05-30 13:01:00,
2013-05-30 09:11:00,75.0,64.0,30.17,North,0,0.0,-999.0,69,-99.99,,,-99.99,,2013-05-30 13:11:00,
2013-05-30 09:22:00,75.0,64.0,30.17,North,0,0.0,-999.0,69,-99.99,,,-99.99,,2013-05-30 13:22:00,
2013-05-30 09:32:00,79.0,66.0,30.18,North,0,0.0,-999.0,65,-99.99,,,-99.99,,2013-05-30 13:32:00,
2013-05-30 09:42:00,79.0,66.0,30.18,North,0,0.0,-999.0,65,-99.99,,,-99.99,,2013-05-30 13:42:00,
2013-05-30 09:52:00,79.0,66.0,30.18,North,0,0.0,-999.0,65,-99.99,,,-99.99,,2013-05-30 13:52:00,
2013-05-30 10:02:00,79.0,66.0,30.18,North,0,0.0,-999.0,65,-99.99,,,-99.99,,2013-05-30 14:02:00,
2013-05-30 10:11:00,81.0,66.0,30.17,North,0,0.0,-999.0,61,-99.99,,,-99.99,,2013-05-30 14:11:00,
2013-05-30 10:22:00,81.0,66.0,30.17,North,0,0.0,-999.0,61,-99.99,,,-99.99,,2013-05-30 14:22:00,
2013-05-30 10:32:00,81.0,66.0,30.17,North,0,0.0,-999.0,61,-99.99,,,-99.99,,2013-05-30 14:32:00,
2013-05-30 10:42:00,81.0,66.0,30.17,North,0,0.0,-999.0,61,-99.99,,,-99.99,,2013-05-30 14:42:00,
2013-05-30 10:52:00,82.0,66.0,30.17,North,0,0.0,-999.0,58,-99.99,,,-99.99,,2013-05-30 14:52:00,
2013-05-30 11:01:00,82.0,66.0,30.17,North,0,0.0,-999.0,58,-99.99,,,-99.99,,2013-05-30 15:01:00,
2013-05-30 11:11:00,82.0,68.0,30.17,SE,130,6.0,-999.0,61,-99.99,,,-99.99,,2013-05-30 15:11:00,
2013-05-30 11:22:00,82.0,68.0,30.17,SE,130,6.0,-999.0,61,-99.99,,,-99.99,,2013-05-30 15:22:00,
2013-05-30 11:33:00,82.0,70.0,30.18,ESE,110,6.0,-999.0,65,-99.99,,,-99.99,,2013-05-30 15:33:00,
2013-05-30 11:42:00,82.0,70.0,30.18,ESE,110,6.0,-999.0,65,-99.99,,,-99.99,,2013-05-30 15:42:00,
2013-05-30 11:52:00,82.0,70.0,30.18,ESE,120,6.0,-999.0,65,-99.99,,,-99.99,,2013-05-30 15:52:00,
2013-05-30 12:03:00,82.0,70.0,30.18,ESE,120,6.0,-999.0,65,-99.99,,,-99.99,,2013-05-30 16:03:00,
2013-05-30 12:12:00,82.0,70.0,30.18,SE,140,7.0,-999.0,65,-99.99,,,-99.99,,2013-05-30 16:12:00,
2013-05-30 12:23:00,82.0,70.0,30.18,SE,140,7.0,-999.0,65,-99.99,,,-99.99,,2013-05-30 16:23:00,
2013-05-30 12:33:00,84.0,70.0,30.17,ESE,120,6.0,-999.0,62,-99.99,,,-99.99,,2013-05-30 16:33:00,
2013-05-30 12:42:00,84.0,70.0,30.17,ESE,120,6.0,-999.0,62,-99.99,,,-99.99,,2013-05-30 16:42:00,
2013-05-30 12:52:00,84.0,70.0,30.17,ESE,120,7.0,-999.0,62,-99.99,,,-99.99,,2013-05-30 16:52:00,
2013-05-30 13:02:00,84.0,70.0,30.17,ESE,120,7.0,-999.0,62,-99.99,,,-99.99,,2013-05-30 17:02:00,
2013-05-30 13:12:00,86.0,70.0,30.17,ESE,110,7.0,-999.0,58,-99.99,,,-99.99,,2013-05-30 17:12:00,
2013-05-30 13:22:00,86.0,70.0,30.17,ESE,110,7.0,-999.0,58,-99.99,,,-99.99,,2013-05-30 17:22:00,
2013-05-30 13:32:00,86.0,70.0,30.17,SE,130,7.0,-999.0,58,-99.99,,,-99.99,,2013-05-30 17:32:00,
2013-05-30 13:42:00,86.0,70.0,30.17,SE,130,7.0,-999.0,58,-99.99,,,-99.99,,2013-05-30 17:42:00,
2013-05-30 13:52:00,86.0,70.0,30.16,SSE,150,10.0,-999.0,58,-99.99,,,-99.99,,2013-05-30 17:52:00,
2013-05-30 14:02:00,86.0,70.0,30.16,SSE,150,10.0,-999.0,58,-99.99,,,-99.99,,2013-05-30 18:02:00,
2013-05-30 14:11:00,84.0,70.0,30.16,SE,140,8.0,-999.0,62,-99.99,,,-99.99,,2013-05-30 18:11:00,
2013-05-30 14:22:00,84.0,70.0,30.16,SE,140,8.0,-999.0,62,-99.99,,,-99.99,,2013-05-30 18:22:00,
2013-05-30 14:32:00,88.0,70.0,30.16,SSE,160,9.0,-999.0,55,-99.99,,,-99.99,,2013-05-30 18:32:00,
2013-05-30 14:43:00,88.0,70.0,30.16,SSE,160,9.0,-999.0,55,-99.99,,,-99.99,,2013-05-30 18:43:00,
2013-05-30 14:51:00,86.0,68.0,30.15,South,190,8.0,-999.0,55,-99.99,,,-99.99,,2013-05-30 18:51:00,
2013-05-30 15:02:00,86.0,68.0,30.15,South,190,8.0,-999.0,55,-99.99,,,-99.99,,2013-05-30 19:02:00,
2013-05-30 15:12:00,88.0,68.0,30.14,South,190,8.0,-999.0,51,-99.99,,,-99.99,,2013-05-30 19:12:00,
2013-05-30 15:23:00,88.0,68.0,30.14,South,190,8.0,-999.0,51,-99.99,,,-99.99,,2013-05-30 19:23:00,
2013-05-30 15:32:00,84.0,64.0,30.14,South,170,7.0,-999.0,51,-99.99,,,-99.99,,2013-05-30 19:32:00,
2013-05-30 15:42:00,84.0,64.0,30.14,South,170,7.0,-999.0,51,-99.99,,,-99.99,,2013-05-30 19:42:00,
2013-05-30 15:52:00,84.0,66.0,30.14,North,0,0.0,-999.0,54,-99.99,,,-99.99,,2013-05-30 19:52:00,
2013-05-30 16:02:00,84.0,66.0,30.14,North,0,0.0,-999.0,54,-99.99,,,-99.99,,2013-05-30 20:02:00,
2013-05-30 16:11:00,84.0,70.0,30.13,SSE,150,5.0,-999.0,62,-99.99,,,-99.99,,2013-05-30 20:11:00,
2013-05-30 16:23:00,84.0,70.0,30.13,SSE,150,5.0,-999.0,62,-99.99,,,-99.99,,2013-05-30 20:23:00,
2013-05-30 16:33:00,84.0,66.0,30.14,North,0,0.0,-999.0,54,-99.99,,,-99.99,,2013-05-30 20:33:00,
2013-05-30 16:42:00,84.0,66.0,30.14,North,0,0.0,-999.0,54,-99.99,,,-99.99,,2013-05-30 20:42:00,
2013-05-30 16:52:00,82.0,66.0,30.14,SSE,150,6.0,-999.0,58,-99.99,,,-99.99,,2013-05-30 20:52:00,
2013-05-30 17:01:00,82.0,66.0,30.14,SSE,150,6.0,-999.0,58,-99.99,,,-99.99,,2013-05-30 21:01:00,
2013-05-30 17:11:00,82.0,66.0,30.14,SSE,150,6.0,-999.0,58,-99.99,,,-99.99,,2013-05-30 21:11:00,
2013-05-30 17:22:00,82.0,66.0,30.14,SSE,150,6.0,-999.0,58,-99.99,,,-99.99,,2013-05-30 21:22:00,
2013-05-30 17:33:00,84.0,70.0,30.13,North,0,0.0,-999.0,62,-99.99,,,-99.99,,2013-05-30 21:33:00,
2013-05-30 17:43:00,84.0,70.0,30.13,North,0,0.0,-999.0,62,-99.99,,,-99.99,,2013-05-30 21:43:00,
2013-05-30 17:53:00,84.0,70.0,30.12,SSE,150,7.0,-999.0,62,-99.99,,,-99.99,,2013-05-30 21:53:00,
2013-05-30 18:02:00,84.0,70.0,30.12,SSE,150,7.0,-999.0,62,-99.99,,,-99.99,,2013-05-30 22:02:00,
2013-05-30 18:12:00,84.0,70.0,30.12,SSE,150,7.0,-999.0,62,-99.99,,,-99.99,,2013-05-30 22:12:00,
2013-05-30 18:23:00,84.0,70.0,30.12,SSE,150,7.0,-999.0,62,-99.99,,,-99.99,,2013-05-30 22:23:00,
2013-05-30 18:33:00,88.0,68.0,30.11,South,190,6.0,-999.0,51,-99.99,,,-99.99,,2013-05-30 22:33:00,
2013-05-30 18:42:00,88.0,68.0,30.11,South,190,6.0,-999.0,51,-99.99,,,-99.99,,2013-05-30 22:42:00,
2013-05-30 18:52:00,88.0,68.0,30.12,SW,220,6.0,-999.0,51,-99.99,,,-99.99,,2013-05-30 22:52:00,
2013-05-30 19:02:00,88.0,68.0,30.12,SW,220,6.0,-999.0,51,-99.99,,,-99.99,,2013-05-30 23:02:00,
2013-05-30 19:11:00,88.0,68.0,30.12,SSW,210,5.0,-999.0,51,-99.99,,,-99.99,,2013-05-30 23:11:00,
2013-05-30 19:22:00,88.0,68.0,30.12,SSW,210,5.0,-999.0,51,-99.99,,,-99.99,,2013-05-30 23:22:00,
2013-05-30 19:32:00,86.0,68.0,30.12,SSW,200,5.0,-999.0,55,-99.99,,,-99.99,,2013-05-30 23:32:00,
2013-05-30 19:42:00,86.0,68.0,30.12,SSW,200,5.0,-999.0,55,-99.99,,,-99.99,,2013-05-30 23:42:00,
2013-05-30 19:52:00,86.0,68.0,30.12,North,0,0.0,-999.0,55,-99.99,,,-99.99,,2013-05-30 23:52:00,
2013-05-30 20:01:00,86.0,68.0,30.12,North,0,0.0,-999.0,55,-99.99,,,-99.99,,2013-05-31 00:01:00,
2013-05-30 20:11:00,84.0,68.0,30.12,North,0,0.0,-999.0,58,-99.99,,,-99.99,,2013-05-31 00:11:00,
2013-05-30 20:22:00,84.0,68.0,30.12,North,0,0.0,-999.0,58,-99.99,,,-99.99,,2013-05-31 00:22:00,
2013-05-30 20:32:00,82.0,70.0,30.12,North,0,0.0,-999.0,65,-99.99,,,-99.99,,2013-05-31 00:32:00,
2013-05-30 20:42:00,82.0,70.0,30.12,North,0,0.0,-999.0,65,-99.99,,,-99.99,,2013-05-31 00:42:00,
2013-05-30 20:52:00,81.0,68.0,30.12,North,0,0.0,-999.0,65,-99.99,,,-99.99,,2013-05-31 00:52:00,
2013-05-30 21:01:00,81.0,68.0,30.12,North,0,0.0,-999.0,65,-99.99,,,-99.99,,2013-05-31 01:01:00,
2013-05-30 21:12:00,81.0,68.0,30.12,North,0,0.0,-999.0,65,-99.99,,,-99.99,,2013-05-31 01:12:00,
2013-05-30 21:21:00,81.0,68.0,30.12,North,0,0.0,-999.0,65,-99.99,,,-99.99,,2013-05-31 01:21:00,
2013-05-30 21:32:00,79.0,68.0,30.12,North,0,0.0,-999.0,69,-99.99,,,-99.99,,2013-05-31 01:32:00,
2013-05-30 21:42:00,79.0,68.0,30.12,North,0,0.0,-999.0,69,-99.99,,,-99.99,,2013-05-31 01:42:00,
2013-05-30 21:52:00,79.0,66.0,30.12,North,0,0.0,-999.0,65,-99.99,,,-99.99,,2013-05-31 01:52:00,
2013-05-30 22:02:00,79.0,66.0,30.12,North,0,0.0,-999.0,65,-99.99,,,-99.99,,2013-05-31 02:02:00,
2013-05-30 22:11:00,77.0,66.0,30.13,North,0,0.0,-999.0,69,-99.99,,,-99.99,,2013-05-31 02:11:00,
2013-05-30 22:22:00,77.0,66.0,30.13,North,0,0.0,-999.0,69,-99.99,,,-99.99,,2013-05-31 02:22:00,
2013-05-30 22:32:00,75.0,66.0,30.13,North,0,0.0,-999.0,73,-99.99,,,-99.99,,2013-05-31 02:32:00,
2013-05-30 22:42:00,75.0,66.0,30.13,North,0,0.0,-999.0,73,-99.99,,,-99.99,,2013-05-31 02:42:00,
2013-05-30 22:51:00,73.0,66.0,30.13,North,0,0.0,-999.0,78,-99.99,,,-99.99,,2013-05-31 02:51:00,
2013-05-30 23:01:00,73.0,66.0,30.13,North,0,0.0,-999.0,78,-99.99,,,-99.99,,2013-05-31 03:01:00,
2013-05-30 23:11:00,73.0,66.0,30.14,North,0,0.0,-999.0,78,-99.99,,,-99.99,,2013-05-31 03:11:00,
2013-05-30 23:22:00,73.0,66.0,30.14,North,0,0.0,-999.0,78,-99.99,,,-99.99,,2013-05-31 03:22:00,
2013-05-30 23:33:00,73.0,66.0,30.13,North,0,0.0,-999.0,78,-99.99,,,-99.99,,2013-05-31 03:33:00,
2013-05-30 23:43:00,73.0,66.0,30.13,North,0,0.0,-999.0,78,-99.99,,,-99.99,,2013-05-31 03:43:00,
2013-05-30 23:53:00,72.0,66.0,30.13,North,0,0.0,-999.0,83,-99.99,,,-99.99,,2013-05-31 03:53:00,